[[{"header":{"parameterUnit":"m.s-1","parameterCategory":2,"la1":30.2991,"la2":30.254,"lo1":-89.0895,"lo2":-89.0444,"dy":0.0017,"dx":0.0017,"nx":28,"ny":28,"refTime":"2024-06-24T09:00:00:Z","depth":"0","parameterNumber":2,"parameterNumberName":"U-component_of_CURRENTS"},"data":[0,0,0,0,0,0,0,0,0,0,0,0,0,0,0,0,0,0,0,0,0,0,0,0,0,0,0,0,0,0,0,0,0,0,0,0,0,0,0,0,0,0,0,0,0,0,0,0,0,0,0,0,0,0,0,0,0,0,0.3928,0.3929,0,0.3985,0.3985,0.3986,0.3991,0.399,0.399,0.399,0.4037,0.4039,0.404,0,0,0,0,0,0,0,0,0,0,0,0,0,0.3834,0.3835,0.3928,0.3929,0.393,0.3985,0.3985,0.3986,0.3991,0.399,0.399,0.399,0.4036,0.4038,0.404,0,0,0,0,0,0,0,0,0,0,0,0,0,0.3879,0.3836,0.3928,0.394,0.3942,0.3985,0.3985,0.3986,0.3991,0.399,0.399,0.3989,0.4036,0.4038,0.4041,0.4068,0,0,0.4048,0.4049,0,0,0,0,0,0,0,0,0.3876,0.3882,0.3938,0.394,0.3942,0.3982,0.3969,0.4014,0.3991,0.397,0.399,0.3989,0.402,0.4023,0.4032,0.407,0.4072,0.4048,0.405,0.4051,0.4051,0,0,0,0,0,0,0,0.3873,0.388,0.3948,0.3939,0.3941,0.3947,0.3952,0.3978,0.3996,0.3972,0.3973,0.3983,0.402,0.403,0.4034,0.4073,0.4048,0.405,0.4052,0.4053,0.4129,0.413,0,0,0,0,0,0,0.3871,0.3877,0.3946,0.395,0.3909,0.3949,0.3955,0.3968,0.3996,0.4,0.3984,0.3983,0.4026,0.4031,0.4035,0.406,0.4051,0.4053,0.4054,0.4129,0.4129,0.413,0,0,0,0,0,0,0.3869,0.3877,0.3944,0.3916,0.3925,0.3952,0.3966,0.3969,0.3983,0.4005,0.4008,0.3993,0.4026,0.4032,0.4048,0.4062,0.4054,0.4056,0.4128,0.4129,0.413,0.4115,0,0,0,0,0,0,0.3866,0.3876,0.3892,0.3916,0.3927,0.3961,0.3967,0.3971,0.3991,0.3991,0.4015,0.4018,0.4026,0.4044,0.4051,0.4065,0.4058,0.4127,0.4128,0.4129,0.4115,0.4116,0.4116,0,0,0,0,0,0.3862,0.3893,0.3892,0.3901,0.3946,0.3961,0.3967,0.3982,0.3992,0.3993,0.4006,0.4018,0.4056,0.4046,0.4054,0.407,0.4127,0.4128,0.4129,0.4115,0.4115,0.4116,0,0,0,0,0,0,0.3872,0.3897,0.3897,0.3936,0.394,0.3963,0.3979,0.3987,0.4002,0.4003,0.4022,0.4026,0.4056,0.4062,0.4051,0.4095,0.4095,0.4098,0.4082,0.4083,0.4083,0.4203,0.406,0,0,0,0,0,0.3878,0.3895,0.3914,0.3939,0.3946,0.3961,0.3975,0.3977,0.3993,0.3999,0.4007,0.4029,0.4069,0.4072,0.41,0.4115,0.422,0.4131,0.4132,0.4132,0.4235,0.4379,0.4404,0.4134,0.4134,0.4134,0,0,0.3898,0.3904,0.3922,0.394,0.3949,0.3981,0.3967,0.3982,0.4017,0.4003,0.4039,0.4038,0.4078,0.4099,0.4112,0.41,0.4252,0.4134,0.4133,0.424,0.4384,0.4411,0.4435,0.4135,0.4135,0.4135,0,0,0.3943,0.3939,0.3976,0.3979,0.3986,0.399,0.3995,0.4003,0.4015,0.4035,0.4049,0.4074,0.4087,0.4134,0.4163,0.4192,0.4262,0.4159,0.4246,0.438,0.4406,0.443,0.4551,0.4587,0.4143,0.4143,0.4143,0,0.3973,0.4015,0.3987,0.4018,0.4043,0.4,0.4054,0.4058,0.4064,0.4102,0.4045,0.4141,0.4137,0.4247,0.4242,0.4204,0.4285,0.4229,0.4387,0.4413,0.4438,0.4558,0.4597,0.4142,0.4142,0.4142,0.4142,0,0.4047,0.4081,0.4097,0.4124,0.4134,0.416,0.4161,0.4165,0.4154,0.4174,0.4248,0.4238,0.4319,0.4277,0.4271,0.4428,0.4427,0.438,0.4393,0.4466,0.4584,0.4626,0.4141,0.4141,0.4142,0.4142,0,0,0.4137,0.4157,0.4169,0.4194,0.4196,0.4212,0.426,0.4317,0.4385,0.4354,0.4476,0.4492,0.4492,0.4533,0.4502,0.4588,0.4775,0.4556,0.4562,0.4694,0.5081,0.4954,0.4986,0.4741,0.4749,0.4755,0.5076,0,0.4219,0.4297,0.4292,0.4365,0.4402,0.4384,0.4443,0.4474,0.4485,0.4565,0.4589,0.4673,0.4585,0.4614,0.4697,0.4768,0.4893,0.4695,0.4983,0.4995,0.4886,0.5034,0.4762,0.5016,0.5117,0.5124,0.5129,0,0.4301,0.4343,0.4437,0.449,0.4513,0.4552,0.4637,0.4683,0.4774,0.4795,0.4876,0.489,0.5032,0.4928,0.5166,0.5036,0.5114,0.5148,0.5159,0.5108,0.4947,0.497,0.5088,0.4904,0.5193,0.5188,0.5184,0,0.4351,0.444,0.4516,0.4533,0.4593,0.465,0.4691,0.4764,0.4803,0.4963,0.5003,0.5168,0.5238,0.538,0.5417,0.533,0.5672,0.5552,0.5535,0.5525,0.54,0.5364,0.5407,0.5816,0.5815,0.5814,0.5813,0,0.4416,0.4473,0.4548,0.4583,0.4676,0.4715,0.4809,0.4874,0.4975,0.5036,0.5132,0.5211,0.5358,0.5503,0.5561,0.5681,0.5805,0.5656,0.5637,0.5373,0.5333,0.525,0.5189,0.5826,0.5824,0.5821,0.5819,0,0.4413,0.4474,0.4547,0.4652,0.4682,0.4742,0.4811,0.4869,0.4987,0.5078,0.5138,0.5307,0.5496,0.5618,0.5861,0.5839,0.5814,0.5998,0.5667,0.5604,0.5346,0.5294,0.5311,0.5169,0.6062,0.6061,0.6061,0,0.4404,0.445,0.4559,0.4587,0.4627,0.4706,0.4741,0.4853,0.4893,0.5096,0.5138,0.5374,0.5469,0.5775,0.5834,0.5994,0.5811,0.5833,0.5625,0.5387,0.5318,0.5115,0.4979,0.5447,0.5441,0.5437,0.5433,0,0.4374,0.4419,0.4471,0.4528,0.4574,0.461,0.4678,0.471,0.4845,0.4922,0.5057,0.5181,0.5452,0.5482,0.5693,0.5738,0.551,0.5741,0.5602,0.498,0.4667,0.4496,0.5173,0.5392,0.5396,0.5399,0.5402,0.5403,0.4323,0.4339,0.4397,0.4432,0.4465,0.4479,0.4449,0.4529,0.4572,0.4642,0.488,0.4957,0.5133,0.5359,0.5376,0.5203,0.5257,0.5044,0.5052,0.4907,0.4609,0.5196,0.5297,0.53,0.5303,0.5306,0.5308,0,0.4215,0.4244,0.4285,0.4293,0.4248,0.4327,0.4347,0.4279,0.4249,0.4427,0.4506,0.4606,0.4638,0.473,0.47,0.4551,0.4338,0.4426,0.4081,0.4022,0.465,0.4451,0.4238,0.4238,0.4238,0.4238,0.4238,0.4238,0.4159,0.4144,0.4162,0.4052,0.4046,0.3917,0.389,0.3841,0.3894,0.3883,0.3909,0.4068,0.4259,0.4308,0.4126,0.4024,0.3731,0.3556,0.3617,0.4028,0.4083,0.4136,0.3931,0.3611,0.3611,0.2752,0.2746,0.2741]},{"header":{"parameterUnit":"m.s-1","parameterCategory":2,"la1":30.2991,"la2":30.254,"lo1":-89.0895,"lo2":-89.0444,"dy":0.0017,"dx":0.0017,"nx":28,"ny":28,"refTime":"2024-06-24T09:00:00:Z","depth":"0","parameterNumber":3,"parameterNumberName":"V-component_of_CURRENTS"},"data":[0,0,0,0,0,0,0,0,0,0,0,0,0,0,0,0,0,0,0,0,0,0,0,0,0,0,0,0,0,0,0,0,0,0,0,0,0,0,0,0,0,0,0,0,0,0,0,0,0,0,0,0,0,0,0,0,0,0,-0.0276,-0.0277,0,-0.0357,-0.0358,-0.0358,-0.0402,-0.0403,-0.0403,-0.0403,-0.0467,-0.0468,-0.047,0,0,0,0,0,0,0,0,0,0,0,0,0,-0.019,-0.0191,-0.0276,-0.0277,-0.0279,-0.0357,-0.0358,-0.0358,-0.0402,-0.0403,-0.0403,-0.0403,-0.0467,-0.0468,-0.047,0,0,0,0,0,0,0,0,0,0,0,0,0,-0.0242,-0.0191,-0.0276,-0.0311,-0.0316,-0.0356,-0.0358,-0.0359,-0.0402,-0.0403,-0.0403,-0.0404,-0.0466,-0.0468,-0.047,-0.0474,0,0,-0.0477,-0.0478,0,0,0,0,0,0,0,0,-0.0239,-0.0245,-0.0305,-0.0309,-0.0314,-0.0372,-0.0351,-0.0397,-0.0402,-0.0367,-0.0403,-0.0404,-0.0435,-0.0439,-0.0451,-0.0477,-0.048,-0.0477,-0.0478,-0.0479,-0.048,0,0,0,0,0,0,0,-0.0235,-0.0242,-0.0306,-0.0306,-0.0312,-0.0334,-0.0341,-0.036,-0.0395,-0.037,-0.0374,-0.0386,-0.0437,-0.0449,-0.0453,-0.0481,-0.0477,-0.0479,-0.048,-0.0481,-0.047,-0.0468,0,0,0,0,0,0,-0.0228,-0.0238,-0.0303,-0.0309,-0.0279,-0.0335,-0.0343,-0.0351,-0.0396,-0.0404,-0.0386,-0.0388,-0.0445,-0.045,-0.0455,-0.0395,-0.0479,-0.0481,-0.0482,-0.0471,-0.047,-0.0468,0,0,0,0,0,0,-0.0226,-0.0233,-0.03,-0.0277,-0.0288,-0.0336,-0.0344,-0.0352,-0.0362,-0.0408,-0.0415,-0.0387,-0.0445,-0.0452,-0.0464,-0.04,-0.0482,-0.0484,-0.0473,-0.0471,-0.0469,-0.0317,0,0,0,0,0,0,-0.0223,-0.0231,-0.0226,-0.0277,-0.0289,-0.0301,-0.0344,-0.0354,-0.037,-0.0374,-0.0412,-0.0418,-0.0446,-0.046,-0.0466,-0.0405,-0.0486,-0.0475,-0.0472,-0.0469,-0.0324,-0.031,-0.0298,0,0,0,0,0,-0.0219,-0.0196,-0.0225,-0.0232,-0.0282,-0.03,-0.0306,-0.0342,-0.0369,-0.0355,-0.0393,-0.0417,-0.0445,-0.0461,-0.0468,-0.0406,-0.0477,-0.0473,-0.047,-0.033,-0.0313,-0.0298,0,0,0,0,0,0,-0.0142,-0.0201,-0.0232,-0.0226,-0.0256,-0.0307,-0.0298,-0.0335,-0.0355,-0.0362,-0.0409,-0.0417,-0.0396,-0.0434,-0.0451,-0.0396,-0.046,-0.0457,-0.0351,-0.0335,-0.0322,-0.0266,-0.0487,0,0,0,0,0,-0.0128,-0.013,-0.019,-0.018,-0.0195,-0.025,-0.0262,-0.0292,-0.0324,-0.0334,-0.0364,-0.0389,-0.0387,-0.039,-0.0403,-0.0384,-0.0384,-0.0347,-0.0334,-0.0322,-0.0282,-0.0243,-0.0221,-0.0456,-0.0456,-0.0456,0,0,-0.0095,-0.0126,-0.0128,-0.0165,-0.0193,-0.0178,-0.0256,-0.0266,-0.0244,-0.0337,-0.0311,-0.0347,-0.0374,-0.0342,-0.0335,-0.0365,-0.0256,-0.0318,-0.0307,-0.0272,-0.0237,-0.0213,-0.0193,-0.0454,-0.0454,-0.0455,0,0,-0.0011,-0.0059,-0.0029,-0.005,-0.009,-0.0123,-0.0123,-0.0175,-0.0187,-0.019,-0.023,-0.0228,-0.0255,-0.0239,-0.0239,-0.0165,-0.0189,-0.0176,-0.0057,-0.002,0.0001,0.0019,0.0052,0.0072,-0.0167,-0.0167,-0.0167,0,0.0033,0.006,-0.0018,0.0009,0.0015,-0.0087,-0.0038,-0.0066,-0.0112,-0.0094,-0.0161,-0.0144,-0.019,-0.01,-0.0084,-0.0126,-0.0118,-0.0112,0.0002,0.0019,0.0036,0.0065,0.0085,-0.0159,-0.016,-0.0161,-0.0162,0,0.0137,0.0159,0.0179,0.018,0.0175,0.0196,0.0141,0.0138,0.0091,0.0071,0.0116,0.0053,0.0077,0.0057,0.0002,0.0112,0.0077,0.0015,-0.0029,0.0069,0.0092,0.0111,-0.0148,-0.0151,-0.0153,-0.0155,0,0,0.0252,0.0253,0.0268,0.0298,0.0266,0.0278,0.0313,0.0335,0.0385,0.0325,0.0417,0.0382,0.0342,0.034,0.0284,0.0298,0.0389,0.0209,0.0207,0.0261,0.0481,0.0379,0.0388,0.0347,0.0351,0.0354,0.0453,0,0.0369,0.046,0.0433,0.0534,0.0572,0.051,0.0565,0.0563,0.0539,0.0591,0.0543,0.0591,0.0454,0.0474,0.0473,0.0417,0.0444,0.0369,0.0362,0.0363,0.0276,0.0408,0.0344,0.0421,0.0471,0.0474,0.0476,0,0.0494,0.0536,0.0649,0.0712,0.0728,0.0777,0.0846,0.0877,0.0906,0.0894,0.092,0.0867,0.0906,0.0753,0.0747,0.0705,0.0621,0.0554,0.0555,0.0428,0.0296,0.0328,0.0452,0.0214,0.0503,0.0501,0.0499,0,0.061,0.07,0.0798,0.0813,0.0858,0.092,0.0955,0.0985,0.1036,0.1102,0.1153,0.116,0.1186,0.1097,0.0922,0.0857,0.0895,0.0787,0.0632,0.0623,0.0553,0.0531,0.0467,0.0809,0.0808,0.0808,0.0808,0,0.0738,0.0821,0.0863,0.091,0.104,0.1044,0.1178,0.12,0.1284,0.1394,0.1328,0.1425,0.127,0.1238,0.1056,0.0914,0.1009,0.0706,0.0662,0.0599,0.0581,0.0353,0.023,0.0812,0.0811,0.081,0.081,0,0.083,0.0863,0.0965,0.1049,0.1085,0.1172,0.1284,0.1378,0.1448,0.1599,0.1639,0.1665,0.1633,0.1446,0.1323,0.1104,0.082,0.0878,0.0807,0.0751,0.0341,0.0229,0.0145,0.0052,0.0752,0.075,0.0749,0,0.0879,0.094,0.1041,0.11,0.114,0.1261,0.1346,0.144,0.1549,0.1747,0.1847,0.1882,0.1919,0.1696,0.133,0.1049,0.0815,0.0772,0.062,0.0359,0.0203,0.0105,0.0027,0.0598,0.0596,0.0594,0.0592,0,0.0955,0.0984,0.1056,0.1169,0.127,0.139,0.1537,0.1651,0.1802,0.1958,0.2165,0.2231,0.2018,0.1732,0.1313,0.1061,0.0577,0.0717,0.0489,0.0132,-0.0011,-0.0137,0.0482,0.0574,0.0576,0.0577,0.0578,0.0579,0.0996,0.1047,0.1131,0.125,0.1362,0.1527,0.1652,0.1829,0.2048,0.2315,0.2377,0.2497,0.2062,0.149,0.1137,0.0394,0.0445,0.0153,0.0063,0.0007,-0.0158,0.0411,0.0403,0.0404,0.0405,0.0405,0.0406,0,0.1038,0.1101,0.1205,0.1354,0.1492,0.1549,0.1782,0.1932,0.2203,0.2436,0.2619,0.2433,0.1872,0.126,0.0307,-0.0172,-0.0342,-0.0426,-0.0569,-0.06,-0.005,-0.0139,-0.0317,-0.0317,-0.0316,-0.0316,-0.0316,-0.0316,0.1066,0.1161,0.1223,0.1447,0.156,0.1767,0.191,0.2134,0.2328,0.2573,0.2625,0.2656,0.2158,0.0583,-0.0537,-0.0789,-0.1062,-0.1144,-0.124,-0.0899,-0.0852,-0.0807,-0.0921,-0.126,-0.1261,-0.1771,-0.1776,-0.178]}],[{"header":{"parameterUnit":"m.s-1","parameterCategory":2,"la1":30.2991,"la2":30.254,"lo1":-89.0895,"lo2":-89.0444,"dy":0.0017,"dx":0.0017,"nx":28,"ny":28,"refTime":"2024-06-24T09:00:00:Z","depth":"2","parameterNumber":2,"parameterNumberName":"U-component_of_CURRENTS"},"data":[0,0,0,0,0,0,0,0,0,0,0,0,0,0,0,0,0,0,0,0,0,0,0,0,0,0,0,0,0,0,0,0,0,0,0,0,0,0,0,0,0,0,0,0,0,0,0,0,0,0,0,0,0,0,0,0,0,0,0.305,0.305,0,0.3076,0.3076,0.3075,0.3054,0.3054,0.3053,0.3053,0.305,0.305,0.305,0,0,0,0,0,0,0,0,0,0,0,0,0,0.2981,0.2981,0.3049,0.3051,0.3052,0.3076,0.3076,0.3075,0.3054,0.3054,0.3053,0.3053,0.305,0.305,0.305,0,0,0,0,0,0,0,0,0,0,0,0,0,0.3002,0.2982,0.3049,0.3049,0.305,0.3076,0.3076,0.3075,0.3054,0.3054,0.3053,0.3053,0.3049,0.305,0.305,0.3057,0,0,0.305,0.305,0,0,0,0,0,0,0,0,0.3001,0.3003,0.3048,0.305,0.3051,0.3068,0.3051,0.307,0.3054,0.3044,0.3053,0.3053,0.3058,0.3058,0.3053,0.3057,0.3057,0.305,0.305,0.305,0.305,0,0,0,0,0,0,0,0.2999,0.3002,0.3052,0.305,0.3051,0.3049,0.3051,0.3054,0.3046,0.3045,0.3046,0.3061,0.3057,0.3053,0.3053,0.3057,0.305,0.305,0.305,0.3051,0.3301,0.3307,0,0,0,0,0,0,0.3012,0.3001,0.3052,0.3054,0.3033,0.3051,0.3053,0.3056,0.3047,0.3048,0.3061,0.306,0.3053,0.3052,0.3052,0.3196,0.305,0.3051,0.3051,0.3294,0.3302,0.3309,0,0,0,0,0,0,0.301,0.3016,0.3051,0.3035,0.304,0.3053,0.3057,0.3057,0.3091,0.3061,0.3059,0.3101,0.3052,0.3052,0.3098,0.319,0.3051,0.3051,0.3287,0.3297,0.3306,0.3395,0,0,0,0,0,0,0.3008,0.3014,0.3045,0.3035,0.3042,0.3118,0.3059,0.3058,0.3103,0.3102,0.3094,0.309,0.3052,0.3098,0.3098,0.3188,0.3051,0.3278,0.3291,0.3303,0.3384,0.3407,0.3426,0,0,0,0,0,0.3005,0.3074,0.3045,0.3054,0.3075,0.3122,0.3126,0.3127,0.3106,0.315,0.3133,0.3093,0.3179,0.3101,0.31,0.3192,0.3272,0.3287,0.3302,0.3374,0.3402,0.3426,0,0,0,0,0,0,0.3076,0.3078,0.3047,0.3115,0.313,0.3122,0.319,0.3159,0.3179,0.3196,0.3131,0.3129,0.3226,0.321,0.3126,0.3318,0.3239,0.3254,0.3295,0.3321,0.3342,0.3321,0.3051,0,0,0,0,0,0.3098,0.3154,0.3132,0.32,0.3217,0.32,0.3226,0.3223,0.323,0.3239,0.3233,0.3254,0.3284,0.3296,0.3336,0.3399,0.3394,0.3484,0.3505,0.3522,0.3517,0.3617,0.3644,0.3358,0.3358,0.3357,0,0,0.3154,0.3163,0.3197,0.3221,0.324,0.3275,0.3217,0.3297,0.3334,0.3238,0.3326,0.3331,0.3326,0.3414,0.3459,0.3404,0.3605,0.3541,0.3554,0.3539,0.3635,0.3662,0.3685,0.3368,0.3366,0.3364,0,0,0.3298,0.3295,0.338,0.3405,0.3448,0.3402,0.343,0.3447,0.3475,0.3523,0.3496,0.3535,0.3581,0.3586,0.3587,0.3754,0.3727,0.3821,0.3879,0.3978,0.3999,0.4019,0.4033,0.4053,0.3814,0.3814,0.3814,0,0.3374,0.3433,0.342,0.3505,0.3517,0.3459,0.3515,0.3544,0.3577,0.3589,0.3585,0.3652,0.3652,0.3708,0.3779,0.3792,0.3831,0.3757,0.3997,0.4016,0.4034,0.4044,0.4065,0.382,0.3819,0.3819,0.3818,0,0.3545,0.3606,0.3678,0.3711,0.3717,0.3788,0.3766,0.3802,0.3784,0.3777,0.3866,0.3863,0.3875,0.3928,0.3886,0.4036,0.4015,0.4015,0.3904,0.4066,0.4069,0.4089,0.3829,0.3826,0.3825,0.3823,0,0,0.3673,0.3771,0.3797,0.3805,0.3824,0.3824,0.389,0.388,0.391,0.3962,0.4013,0.4065,0.4046,0.4053,0.4048,0.4131,0.428,0.414,0.4142,0.4104,0.447,0.4317,0.4322,0.4342,0.4347,0.435,0.4411,0,0.3801,0.3936,0.3946,0.4019,0.4041,0.3998,0.4029,0.4026,0.4033,0.4094,0.41,0.4179,0.4105,0.4145,0.4204,0.4308,0.4343,0.426,0.4362,0.4363,0.4167,0.4344,0.4017,0.4035,0.4429,0.4432,0.4435,0,0.3909,0.3978,0.4066,0.4079,0.4089,0.4129,0.4084,0.4122,0.4175,0.4204,0.4239,0.4274,0.4379,0.4328,0.447,0.444,0.4447,0.4491,0.4495,0.4328,0.4248,0.3949,0.4054,0.4466,0.4464,0.4461,0.4459,0,0.3862,0.402,0.4052,0.4082,0.4114,0.4153,0.4152,0.4167,0.4165,0.4315,0.436,0.4451,0.4535,0.4605,0.4624,0.4611,0.4778,0.4761,0.4586,0.4572,0.4294,0.4248,0.483,0.483,0.4829,0.4829,0.4829,0,0.3889,0.3931,0.4067,0.4093,0.4126,0.4163,0.4212,0.4219,0.4274,0.43,0.4429,0.4488,0.4634,0.4708,0.4706,0.4692,0.4819,0.4618,0.4605,0.4317,0.4275,0.4648,0.4626,0.4831,0.4831,0.483,0.483,0,0.3765,0.3879,0.3916,0.4041,0.4093,0.4098,0.4192,0.4207,0.4314,0.4373,0.4436,0.4566,0.4717,0.4755,0.4893,0.4782,0.4806,0.4728,0.4334,0.4273,0.4509,0.4492,0.4614,0.461,0.4606,0.4603,0.46,0,0.3684,0.37,0.3839,0.3872,0.395,0.404,0.4073,0.4177,0.4203,0.4389,0.4395,0.4595,0.4623,0.472,0.4671,0.4624,0.4706,0.4253,0.4159,0.4525,0.4501,0.449,0.4478,0.3821,0.3812,0.3805,0.3799,0,0.349,0.3551,0.3584,0.3682,0.3765,0.3845,0.396,0.3965,0.4101,0.4186,0.4271,0.4335,0.4454,0.4296,0.4254,0.4176,0.4261,0.4105,0.465,0.3919,0.3782,0.3756,0.377,0.3736,0.3742,0.3747,0.375,0.3753,0.3305,0.3286,0.3359,0.3438,0.3541,0.3627,0.3653,0.3775,0.3793,0.3804,0.3973,0.3949,0.3974,0.3764,0.3647,0.3612,0.3888,0.3715,0.3737,0.3766,0.3657,0.352,0.34,0.3404,0.3408,0.3411,0.3414,0,0.3039,0.3093,0.3121,0.3215,0.3261,0.3443,0.3525,0.3497,0.3523,0.3503,0.3498,0.3157,0.306,0.3138,0.2995,0.2976,0.2938,0.286,0.2804,0.287,0.2929,0.2775,0.2286,0.2282,0.2279,0.2275,0,0,0.2903,0.2848,0.2898,0.2927,0.3053,0.3093,0.3144,0.309,0.3059,0.2841,0.2748,0.2804,0.3003,0.257,0.2532,0.2409,0.2605,0.2306,0.3218,0.3217,0.3269,0.3437,0.3277,0,0,0,0,0]},{"header":{"parameterUnit":"m.s-1","parameterCategory":2,"la1":30.2991,"la2":30.254,"lo1":-89.0895,"lo2":-89.0444,"dy":0.0017,"dx":0.0017,"nx":28,"ny":28,"refTime":"2024-06-24T09:00:00:Z","depth":"2","parameterNumber":3,"parameterNumberName":"V-component_of_CURRENTS"},"data":[0,0,0,0,0,0,0,0,0,0,0,0,0,0,0,0,0,0,0,0,0,0,0,0,0,0,0,0,0,0,0,0,0,0,0,0,0,0,0,0,0,0,0,0,0,0,0,0,0,0,0,0,0,0,0,0,0,0,-0.0616,-0.0616,0,-0.0676,-0.0677,-0.0678,-0.0757,-0.0758,-0.0759,-0.076,-0.0885,-0.0887,-0.089,0,0,0,0,0,0,0,0,0,0,0,0,0,-0.0591,-0.0591,-0.0616,-0.0616,-0.0617,-0.0676,-0.0677,-0.0678,-0.0757,-0.0758,-0.0759,-0.0761,-0.0884,-0.0887,-0.089,0,0,0,0,0,0,0,0,0,0,0,0,0,-0.0624,-0.0591,-0.0616,-0.0662,-0.0666,-0.0676,-0.0677,-0.0679,-0.0757,-0.0758,-0.076,-0.0761,-0.0884,-0.0887,-0.089,-0.088,0,0,-0.0901,-0.0903,0,0,0,0,0,0,0,0,-0.0622,-0.0625,-0.0654,-0.0658,-0.0664,-0.0709,-0.0714,-0.0748,-0.0756,-0.0725,-0.076,-0.0762,-0.083,-0.0838,-0.0848,-0.0885,-0.0891,-0.0901,-0.0903,-0.0905,-0.0906,0,0,0,0,0,0,0,-0.0619,-0.0623,-0.0642,-0.0655,-0.066,-0.0687,-0.0693,-0.0721,-0.077,-0.0728,-0.0733,-0.0735,-0.0833,-0.0844,-0.0851,-0.0893,-0.0901,-0.0904,-0.0907,-0.0908,-0.0847,-0.0844,0,0,0,0,0,0,-0.0604,-0.062,-0.064,-0.0644,-0.0644,-0.0686,-0.0693,-0.0695,-0.0769,-0.078,-0.0734,-0.0739,-0.0837,-0.0847,-0.0856,-0.0778,-0.0905,-0.0908,-0.091,-0.0851,-0.0847,-0.0843,0,0,0,0,0,0,-0.0603,-0.0605,-0.0638,-0.0632,-0.0638,-0.0684,-0.0685,-0.0695,-0.0715,-0.0772,-0.0786,-0.0745,-0.0839,-0.0851,-0.0878,-0.0787,-0.091,-0.0913,-0.0855,-0.085,-0.0845,-0.0667,0,0,0,0,0,0,-0.0602,-0.0605,-0.0604,-0.0631,-0.0637,-0.0637,-0.0684,-0.0695,-0.0712,-0.0719,-0.0786,-0.0799,-0.0841,-0.0872,-0.0881,-0.0794,-0.0916,-0.086,-0.0853,-0.0846,-0.0678,-0.0657,-0.0638,0,0,0,0,0,-0.0601,-0.0582,-0.0603,-0.0606,-0.0634,-0.0636,-0.0642,-0.0682,-0.0711,-0.0709,-0.0754,-0.0797,-0.0833,-0.0874,-0.0885,-0.0796,-0.0864,-0.0855,-0.0847,-0.0687,-0.0661,-0.0639,0,0,0,0,0,0,-0.0571,-0.0589,-0.0613,-0.0602,-0.0618,-0.0649,-0.064,-0.0676,-0.0709,-0.0712,-0.0784,-0.0798,-0.0778,-0.0816,-0.0859,-0.0753,-0.0841,-0.0834,-0.0715,-0.0691,-0.0671,-0.066,-0.0919,0,0,0,0,0,-0.0562,-0.0542,-0.0579,-0.0561,-0.0568,-0.0606,-0.0614,-0.0638,-0.0667,-0.0684,-0.0722,-0.0745,-0.0746,-0.0749,-0.0767,-0.073,-0.0788,-0.0667,-0.0647,-0.063,-0.0625,-0.0631,-0.0612,-0.0815,-0.0815,-0.0815,0,0,-0.0539,-0.0545,-0.0534,-0.0551,-0.0563,-0.0535,-0.0615,-0.0606,-0.0575,-0.069,-0.0657,-0.0694,-0.0727,-0.0677,-0.0665,-0.07,-0.0603,-0.0619,-0.0605,-0.0609,-0.0621,-0.0602,-0.0584,-0.081,-0.0811,-0.0812,0,0,-0.046,-0.0491,-0.0448,-0.0444,-0.0453,-0.0479,-0.0476,-0.05,-0.051,-0.0498,-0.0546,-0.0538,-0.0555,-0.054,-0.054,-0.0422,-0.0509,-0.0407,-0.0287,-0.0291,-0.0276,-0.0263,-0.0319,-0.0313,-0.0382,-0.0382,-0.0382,0,-0.0437,-0.039,-0.0436,-0.0382,-0.0369,-0.0445,-0.0395,-0.0399,-0.0424,-0.0419,-0.0463,-0.0449,-0.0477,-0.0404,-0.0348,-0.0374,-0.0421,-0.0378,-0.0267,-0.0256,-0.0245,-0.0307,-0.0302,-0.0372,-0.0373,-0.0374,-0.0375,0,-0.0317,-0.0282,-0.0247,-0.0209,-0.0208,-0.0171,-0.0193,-0.0182,-0.0214,-0.0227,-0.0192,-0.0231,-0.0231,-0.0199,-0.0241,-0.0146,-0.022,-0.0256,-0.0334,-0.0214,-0.0287,-0.0285,-0.0359,-0.0362,-0.0365,-0.0367,0,0,-0.0253,-0.0185,-0.0167,-0.0148,-0.0116,-0.012,-0.0042,-0.0031,0.0005,-0.0007,0.0038,0.0066,0.0014,0.0012,-0.002,0.0003,0.0043,-0.0078,-0.0083,-0.0145,-0.001,-0.0086,-0.0093,0.002,0.0022,0.0023,-0.0095,0,-0.0151,-0.0061,-0.0027,0.006,0.0077,0.0074,0.0146,0.0156,0.0144,0.0173,0.0149,0.0178,0.0106,0.0119,0.0125,0.0074,0.0057,0.0075,-0.0108,-0.0114,-0.0204,-0.0088,-0.0042,-0.0144,-0.0094,-0.0093,-0.0093,0,-0.0053,-0.0014,0.007,0.0135,0.0152,0.0221,0.0264,0.032,0.0361,0.0358,0.037,0.0327,0.037,0.0279,0.0225,0.0235,0.0119,0.0061,0.0054,-0.0079,-0.0184,-0.0252,-0.0144,-0.0092,-0.0092,-0.0092,-0.0092,0,-0.008,0.0047,0.009,0.0123,0.0202,0.0268,0.0321,0.0379,0.041,0.0479,0.0517,0.0502,0.0517,0.041,0.0264,0.0255,0.0162,0.0126,-0.0071,-0.0081,-0.0108,-0.0123,0.0049,0.0049,0.005,0.005,0.005,0,-0.0034,0.0017,0.0092,0.0116,0.02,0.0272,0.0373,0.0427,0.0513,0.0571,0.0604,0.0657,0.0555,0.0476,0.031,0.0125,0.0179,-0.0037,-0.0094,-0.0047,-0.0054,-0.0065,-0.0077,0.0045,0.0046,0.0047,0.0048,0,-0.0076,-0.0023,0.0025,0.0132,0.0176,0.0229,0.0384,0.0455,0.0571,0.0656,0.0692,0.0765,0.0736,0.0564,0.0401,0.0199,0.0022,-0.009,-0.0054,-0.0105,-0.0236,-0.0236,-0.027,-0.0273,-0.0275,-0.0278,-0.028,0,-0.0096,-0.0082,-0.0004,0.0041,0.0112,0.0221,0.0311,0.0439,0.0523,0.0719,0.0765,0.0812,0.0849,0.0596,0.0315,0.0016,-0.0033,-0.0218,-0.021,-0.0204,-0.0258,-0.0254,-0.0252,-0.0189,-0.019,-0.0191,-0.0191,0,-0.0131,-0.011,-0.0067,0.0017,0.011,0.0215,0.0372,0.0444,0.0618,0.0774,0.0987,0.106,0.087,0.0672,0.0242,0.0025,-0.0146,-0.0247,-0.0215,-0.0119,-0.0138,-0.0188,-0.0186,-0.0199,-0.0198,-0.0197,-0.0197,-0.0197,-0.0154,-0.0131,-0.0067,0.0028,0.0134,0.0292,0.0431,0.0615,0.0823,0.1108,0.1108,0.1272,0.0948,0.0523,0.0154,-0.0205,-0.0185,-0.0345,-0.0337,-0.033,-0.0302,-0.0325,-0.0419,-0.0419,-0.042,-0.042,-0.0421,0,-0.0154,-0.0102,-0.0036,0.0112,0.0262,0.0319,0.0536,0.0724,0.1051,0.1215,0.1425,0.1182,0.0925,0.0576,0.0057,-0.0315,-0.0308,-0.0438,-0.0333,-0.0325,-0.0317,-0.0285,-0.04,-0.0401,-0.0401,-0.0402,0,0,-0.0145,-0.0071,-0.0018,0.0231,0.0365,0.0612,0.0771,0.105,0.1233,0.1479,0.1563,0.1533,0.1066,0.0672,0.021,-0.0071,-0.0121,-0.0143,-0.0124,0.0062,0.0074,-0.0232,-0.017,0,0,0,0,0]}],[{"header":{"parameterUnit":"m.s-1","parameterCategory":2,"la1":30.2991,"la2":30.254,"lo1":-89.0895,"lo2":-89.0444,"dy":0.0017,"dx":0.0017,"nx":28,"ny":28,"refTime":"2024-06-24T09:00:00:Z","depth":"4","parameterNumber":2,"parameterNumberName":"U-component_of_CURRENTS"},"data":[0,0,0,0,0,0,0,0,0,0,0,0,0,0,0,0,0,0,0,0,0,0,0,0,0,0,0,0,0,0,0,0,0,0,0,0,0,0,0,0,0,0,0,0,0,0,0,0,0,0,0,0,0,0,0,0,0,0,0.0974,0.0975,0,0.1043,0.1044,0.1045,0.1123,0.1124,0.1125,0.1126,0.1259,0.1261,0.1264,0,0,0,0,0,0,0,0,0,0,0,0,0,0.0888,0.0889,0.0974,0.0975,0.0975,0.1043,0.1044,0.1045,0.1123,0.1124,0.1125,0.1126,0.1258,0.1261,0.1264,0,0,0,0,0,0,0,0,0,0,0,0,0,0.094,0.089,0.0974,0.102,0.1025,0.1043,0.1044,0.1046,0.1123,0.1124,0.1125,0.1127,0.1257,0.1261,0.1265,0.1263,0,0,0.1277,0.1279,0,0,0,0,0,0,0,0,0.0937,0.0944,0.1013,0.1017,0.1022,0.1074,0.1062,0.1121,0.1122,0.1088,0.1126,0.1127,0.12,0.1209,0.1222,0.1269,0.1275,0.1278,0.128,0.1282,0.1283,0,0,0,0,0,0,0,0.0934,0.0941,0.1004,0.1013,0.1019,0.103,0.1039,0.1074,0.1139,0.1091,0.1097,0.1099,0.1204,0.1218,0.1226,0.1277,0.1277,0.1281,0.1284,0.1285,0.1513,0.1516,0,0,0,0,0,0,0.0919,0.0938,0.1002,0.1006,0.0979,0.103,0.1041,0.1058,0.1137,0.115,0.1098,0.1103,0.121,0.1221,0.1231,0.1383,0.1282,0.1286,0.1288,0.1509,0.1513,0.1517,0,0,0,0,0,0,0.0917,0.0925,0.0999,0.097,0.098,0.103,0.1049,0.1058,0.1112,0.1141,0.1156,0.1145,0.1212,0.1225,0.1318,0.1383,0.1287,0.1291,0.1505,0.151,0.1515,0.1592,0,0,0,0,0,0,0.0915,0.0924,0.0946,0.097,0.0981,0.1027,0.1047,0.1059,0.1108,0.1116,0.1186,0.1197,0.1214,0.1312,0.1322,0.1387,0.1294,0.15,0.1507,0.1514,0.1585,0.1599,0.1611,0,0,0,0,0,0.0912,0.0927,0.0947,0.0956,0.1006,0.1028,0.1036,0.1076,0.1109,0.1131,0.1204,0.1197,0.1363,0.1318,0.1329,0.1396,0.1497,0.1505,0.1513,0.1579,0.1596,0.1611,0,0,0,0,0,0,0.0899,0.0936,0.096,0.0987,0.1015,0.104,0.1059,0.1096,0.1169,0.1192,0.1234,0.1251,0.1358,0.137,0.132,0.1486,0.1432,0.1443,0.1478,0.1495,0.1508,0.16,0.1298,0,0,0,0,0,0.0905,0.0928,0.0962,0.0984,0.0998,0.1039,0.106,0.1093,0.1147,0.1181,0.1245,0.1319,0.1392,0.1438,0.1491,0.1574,0.1594,0.163,0.1643,0.1654,0.174,0.1783,0.1808,0.1544,0.1544,0.1544,0,0,0.0891,0.0926,0.0932,0.0983,0.1005,0.1064,0.1057,0.1094,0.1173,0.1183,0.1321,0.1362,0.1425,0.1528,0.1577,0.1551,0.1735,0.1665,0.1673,0.1756,0.1794,0.182,0.1842,0.1549,0.1548,0.1548,0,0,0.089,0.092,0.0948,0.0971,0.102,0.108,0.1102,0.1164,0.1219,0.1326,0.1376,0.1484,0.1565,0.1657,0.1703,0.1829,0.1799,0.1821,0.1971,0.2008,0.2031,0.205,0.2078,0.21,0.1832,0.1833,0.1833,0,0.0887,0.0939,0.0956,0.0991,0.1044,0.1102,0.1172,0.1229,0.1328,0.1408,0.1383,0.161,0.1648,0.1831,0.1891,0.1865,0.1867,0.1891,0.2024,0.2045,0.2064,0.2088,0.2111,0.1837,0.1837,0.1836,0.1836,0,0.089,0.0957,0.0968,0.1071,0.1133,0.1184,0.1277,0.1377,0.1466,0.1537,0.1715,0.178,0.1936,0.1944,0.1967,0.2145,0.2093,0.2021,0.1975,0.2095,0.2112,0.2134,0.1844,0.1842,0.1841,0.184,0,0,0.0846,0.0961,0.0973,0.1036,0.1186,0.1223,0.1404,0.1578,0.1688,0.18,0.1958,0.2124,0.2176,0.2242,0.2269,0.2328,0.2445,0.2256,0.2255,0.2273,0.2523,0.232,0.2324,0.2365,0.2371,0.2375,0.2467,0,0.0872,0.0964,0.1047,0.1181,0.125,0.1387,0.1549,0.1705,0.1826,0.1976,0.2105,0.224,0.2274,0.234,0.243,0.2418,0.2516,0.2429,0.2421,0.2423,0.2217,0.2349,0.2392,0.2484,0.2489,0.2493,0.2496,0,0.0859,0.0948,0.1074,0.1267,0.131,0.1422,0.1689,0.1825,0.2062,0.215,0.2349,0.2409,0.2615,0.2557,0.2715,0.2641,0.2662,0.2638,0.2638,0.2462,0.2265,0.2352,0.2536,0.2533,0.253,0.2527,0.2525,0,0.0803,0.0966,0.1086,0.1128,0.1358,0.148,0.165,0.1895,0.2009,0.2269,0.2347,0.2581,0.2659,0.2751,0.2781,0.2745,0.2863,0.2772,0.2642,0.2625,0.2739,0.2718,0.2941,0.2941,0.294,0.294,0.294,0,0.0797,0.0878,0.1055,0.1094,0.1258,0.1445,0.1612,0.1826,0.2072,0.2201,0.2431,0.2536,0.2704,0.2781,0.2824,0.28,0.2913,0.2741,0.2661,0.2763,0.2744,0.2752,0.2729,0.2944,0.2943,0.2942,0.2942,0,0.0705,0.0821,0.0924,0.1148,0.1219,0.1328,0.1561,0.1669,0.1943,0.212,0.2217,0.25,0.2624,0.2749,0.2851,0.2795,0.281,0.2791,0.2924,0.2837,0.2545,0.2526,0.2659,0.2653,0.2649,0.2644,0.2641,0,0.0666,0.071,0.0884,0.0935,0.1037,0.1188,0.1303,0.1595,0.171,0.2064,0.2145,0.2369,0.2527,0.2532,0.2674,0.2761,0.2748,0.2728,0.2677,0.2621,0.2531,0.2518,0.2506,0.2633,0.2632,0.2631,0.2629,0,0.0588,0.0638,0.0724,0.082,0.0916,0.0991,0.1184,0.1252,0.1596,0.1803,0.2038,0.2176,0.2307,0.2431,0.2516,0.2572,0.2708,0.2677,0.2687,0.2639,0.259,0.2503,0.2496,0.2612,0.2615,0.2616,0.2617,0,0.0506,0.0524,0.0617,0.0704,0.079,0.0851,0.0936,0.1116,0.1279,0.172,0.176,0.2048,0.2264,0.2334,0.2405,0.2447,0.2431,0.2343,0.237,0.2391,0.2263,0.2159,0.2039,0,0,0,0,0,0.0433,0.0453,0.0503,0.0595,0.0666,0.0725,0.0903,0.1006,0.1291,0.1412,0.1615,0.177,0.1958,0.2092,0.2093,0.2271,0.2408,0.2255,0.231,0.2518,0.2537,0.2413,0,0,0,0,0,0,0.0384,0.0425,0.0463,0.0486,0.0523,0.0597,0.0698,0.0886,0.0977,0.1283,0.1398,0.1624,0.1826,0.1944,0.2048,0.2087,0.2075,0.2429,0.2423,0.2507,0.2524,0.254,0.2419,0,0,0,0,0]},{"header":{"parameterUnit":"m.s-1","parameterCategory":2,"la1":30.2991,"la2":30.254,"lo1":-89.0895,"lo2":-89.0444,"dy":0.0017,"dx":0.0017,"nx":28,"ny":28,"refTime":"2024-06-24T09:00:00:Z","depth":"4","parameterNumber":3,"parameterNumberName":"V-component_of_CURRENTS"},"data":[0,0,0,0,0,0,0,0,0,0,0,0,0,0,0,0,0,0,0,0,0,0,0,0,0,0,0,0,0,0,0,0,0,0,0,0,0,0,0,0,0,0,0,0,0,0,0,0,0,0,0,0,0,0,0,0,0,0,0.0445,0.0445,0,0.0441,0.044,0.044,0.0426,0.0426,0.0426,0.0426,0.0349,0.0347,0.0345,0,0,0,0,0,0,0,0,0,0,0,0,0,0.0409,0.0409,0.0445,0.0445,0.0445,0.0441,0.044,0.044,0.0426,0.0426,0.0426,0.0426,0.0349,0.0347,0.0344,0,0,0,0,0,0,0,0,0,0,0,0,0,0.0413,0.0409,0.0445,0.0441,0.0441,0.0441,0.044,0.044,0.0426,0.0426,0.0426,0.0426,0.035,0.0347,0.0344,0.0323,0,0,0.0334,0.0333,0,0,0,0,0,0,0,0,0.0413,0.0414,0.0441,0.0441,0.0441,0.0437,0.04,0.0399,0.0426,0.0427,0.0426,0.0426,0.0374,0.0369,0.0364,0.032,0.0317,0.0334,0.0332,0.0331,0.033,0,0,0,0,0,0,0,0.0412,0.0414,0.0439,0.0441,0.0441,0.0429,0.0429,0.0399,0.0396,0.0427,0.0427,0.0433,0.0373,0.0367,0.0361,0.0315,0.0334,0.0331,0.033,0.0328,0.0214,0.0213,0,0,0,0,0,0,0.0422,0.0414,0.0439,0.0439,0.0431,0.043,0.043,0.0435,0.0398,0.0394,0.0433,0.0432,0.0372,0.0365,0.0359,0.0317,0.0331,0.0328,0.0326,0.0215,0.0214,0.0212,0,0,0,0,0,0,0.0422,0.0425,0.044,0.0429,0.0431,0.0431,0.0436,0.0435,0.0433,0.0404,0.0398,0.0433,0.0372,0.0363,0.0332,0.0314,0.0327,0.0324,0.0216,0.0215,0.0213,0.0242,0,0,0,0,0,0,0.0421,0.0424,0.043,0.043,0.0432,0.0441,0.0437,0.0435,0.0438,0.0438,0.0402,0.0395,0.0371,0.0337,0.0329,0.031,0.0321,0.0218,0.0216,0.0214,0.0243,0.0242,0.0241,0,0,0,0,0,0.0419,0.0429,0.043,0.0433,0.044,0.0441,0.044,0.0437,0.0439,0.0435,0.0412,0.0396,0.0317,0.0335,0.0325,0.0304,0.0219,0.0216,0.0214,0.0243,0.0242,0.0241,0,0,0,0,0,0,0.0409,0.0429,0.043,0.0443,0.0443,0.044,0.0443,0.0441,0.0422,0.0423,0.039,0.0381,0.0343,0.0319,0.0339,0.0262,0.0261,0.0257,0.0286,0.0285,0.0284,0.0269,0.0319,0,0,0,0,0,0.0412,0.0427,0.0434,0.0442,0.0447,0.0445,0.0446,0.0447,0.0434,0.0427,0.04,0.0364,0.0323,0.0304,0.0268,0.0234,0.0192,0.0209,0.0208,0.0208,0.0187,0.012,0.0111,0.0204,0.0204,0.0204,0,0,0.0414,0.0423,0.0434,0.0442,0.0444,0.043,0.0445,0.0453,0.043,0.0419,0.0381,0.0363,0.0313,0.0273,0.0252,0.0253,0.0161,0.0204,0.0205,0.0183,0.0116,0.0107,0.0099,0.0202,0.0202,0.0203,0,0,0.0412,0.043,0.0437,0.0435,0.0444,0.0434,0.0437,0.0437,0.0428,0.0401,0.0379,0.0351,0.0297,0.0256,0.0227,0.0196,0.0159,0.0187,0.0169,0.0106,0.0098,0.009,0.0037,0.0024,0.0186,0.0186,0.0186,0,0.0408,0.0414,0.0436,0.0429,0.042,0.0432,0.0415,0.0404,0.0389,0.0378,0.0388,0.0308,0.0279,0.0211,0.0201,0.0192,0.0156,0.0186,0.0106,0.0097,0.0089,0.0036,0.0022,0.0187,0.0187,0.0187,0.0187,0,0.0407,0.0403,0.0406,0.0393,0.0383,0.0381,0.0367,0.0358,0.0354,0.034,0.03,0.0271,0.0222,0.0209,0.0194,0.012,0.0115,0.0117,0.0114,0.0081,0.0028,0.0012,0.0189,0.0188,0.0188,0.0188,0,0,0.0414,0.0406,0.0405,0.0405,0.0367,0.0377,0.0323,0.0295,0.0289,0.0265,0.0236,0.0175,0.0184,0.0149,0.0136,0.0083,0.0006,0.0078,0.0074,0.0034,-0.0132,-0.0094,-0.0107,0.0001,-0.0002,-0.0004,-0.0141,0,0.04,0.0399,0.0373,0.0354,0.0356,0.0328,0.0287,0.0264,0.0246,0.0226,0.019,0.0166,0.0152,0.0155,0.009,0.0033,-0.0036,0.0042,-0.0104,-0.0109,-0.0063,-0.0124,-0.0013,-0.0152,-0.0156,-0.0158,-0.016,0,0.0405,0.0404,0.0394,0.037,0.0367,0.035,0.0319,0.0285,0.0235,0.0217,0.0172,0.016,0.0079,0.0088,-0.0066,-0.0011,-0.0085,-0.0133,-0.0139,-0.013,-0.01,-0.0119,-0.0189,-0.0187,-0.0185,-0.0183,-0.0181,0,0.0452,0.0419,0.0423,0.0416,0.0382,0.0375,0.0351,0.0303,0.0299,0.0227,0.0229,0.0121,0.0101,-0.0023,-0.0109,-0.0097,-0.0268,-0.0264,-0.0312,-0.0309,-0.0312,-0.0303,-0.0403,-0.0403,-0.0402,-0.0402,-0.0401,0,0.0461,0.0468,0.0468,0.0484,0.0503,0.0446,0.0462,0.041,0.0361,0.0365,0.0255,0.0239,0.0074,-0.0018,-0.013,-0.0261,-0.0294,-0.0343,-0.0354,-0.0295,-0.0282,-0.0322,-0.0311,-0.0407,-0.0406,-0.0405,-0.0404,0,0.0513,0.0507,0.0533,0.0527,0.054,0.0564,0.0563,0.0574,0.0496,0.0491,0.0474,0.0324,0.0182,0.0029,-0.017,-0.026,-0.04,-0.044,-0.0364,-0.0364,-0.0402,-0.0388,-0.0538,-0.0538,-0.0538,-0.0538,-0.0538,0,0.0535,0.0559,0.0607,0.0643,0.065,0.0687,0.0715,0.0659,0.0662,0.0561,0.0562,0.0419,0.0315,0.0053,-0.0137,-0.0382,-0.0401,-0.0491,-0.047,-0.0427,-0.0423,-0.0408,-0.0394,-0.0539,-0.0539,-0.0539,-0.0539,0,0.0571,0.0605,0.0631,0.0716,0.0777,0.0831,0.0859,0.0874,0.0801,0.0763,0.0647,0.0486,0.0315,0.0077,-0.0111,-0.028,-0.0446,-0.0492,-0.0494,-0.0475,-0.0429,-0.0421,-0.0408,-0.0539,-0.0539,-0.0539,-0.0539,0,0.0602,0.064,0.0693,0.0759,0.0842,0.0906,0.0934,0.0922,0.0914,0.0797,0.077,0.0547,0.0411,0.013,-0.0038,-0.021,-0.026,-0.0317,-0.0329,-0.0331,-0.0222,-0.013,-0.0182,0,0,0,0,0,0.0607,0.0646,0.0718,0.0792,0.0876,0.0918,0.0981,0.0991,0.0965,0.091,0.083,0.0672,0.0368,0.0217,0.0053,-0.0046,-0.0292,-0.0246,-0.0363,-0.054,-0.0539,-0.0443,0,0,0,0,0,0,0.0607,0.0675,0.0711,0.0796,0.0844,0.0939,0.098,0.0976,0.0933,0.0878,0.0726,0.063,0.0343,0.0466,0.0046,-0.0012,-0.0108,-0.0392,-0.0395,-0.054,-0.054,-0.0539,-0.044,0,0,0,0,0]}]]